Location: Unspecified
(44.4377°N, 88.0525°W)
Time: 00:48:21
(UTC-05:00)

Resurs 1-4 Rocket - Visible Passes

Search period start: 30 March 2015 00:00
Search period end: 09 April 2015 00:00
Orbit: 800 x 815 km, 98.4° (Epoch: 29 March)

Date Brightness Start Highest point End Pass type
(mag) Time Alt. Az. Time Alt. Az. Time Alt. Az.
30 Mar 3.3 03:58:09 10° NNE 04:03:01 38° E 04:06:08 20° SSE visible
30 Mar 3.0 05:38:14 10° N 05:42:49 30° WNW 05:47:14 10° SW visible
31 Mar 4.1 03:34:12 10° NE 03:38:18 23° E 03:41:30 14° SE visible
31 Mar 2.4 05:13:25 10° N 05:18:29 48° WNW 05:22:36 15° SW visible
01 Apr 4.6 03:10:53 10° ENE 03:13:29 14° E 03:16:20 10° ESE visible
01 Apr 2.0 04:48:48 10° N 04:54:05 78° WNW 04:57:58 18° SSW visible
02 Apr 2.4 04:24:22 10° NNE 04:29:36 66° E 04:33:20 19° S visible
03 Apr 3.2 04:00:06 10° NNE 04:05:01 40° E 04:08:42 17° SSE visible
03 Apr 3.0 05:40:16 10° N 05:44:46 29° WNW 05:49:11 10° WSW visible
04 Apr 4.0 03:36:07 10° NE 03:40:19 24° E 03:44:04 12° SE visible
04 Apr 2.4 05:15:26 10° N 05:20:27 46° WNW 05:25:10 11° SW visible
05 Apr 4.6 03:12:42 10° NE 03:15:30 15° E 03:18:33 10° ESE visible
05 Apr 2.0 04:50:48 10° N 04:56:03 74° WNW 05:00:31 14° SSW visible
06 Apr 2.3 04:26:19 10° NNE 04:31:35 69° E 04:35:53 15° S visible
07 Apr 3.2 04:02:02 10° NNE 04:07:00 42° E 04:11:14 14° SSE visible
07 Apr 3.1 05:42:18 10° N 05:46:44 28° WNW 05:51:06 10° WSW visible
08 Apr 4.0 03:38:02 10° NE 03:42:20 26° E 03:46:35 11° SSE visible
08 Apr 2.5 05:17:26 10° N 05:22:25 44° WNW 05:27:21 10° SW visible
